COSMOS 2398 (27818 NORAD) Tracking and Keplerian Element Data

This shows tracking and keplerian element data for the satellite.

Feedback or suggestion? Click here.




ElementValue
Catalog27818
NameCOSMOS 2398
Epoch Orbit8539
Epoch Day35.05093675
Epoch Year2025
RAAN142.404
Inclination82.9512
Eccentricity0.0030085
Argument of Perigee257.8219
Mean Anonmoly284.644
Mean Motion13.7234723
Decay Rate1.17E-06
L11 27818U 03023A 25035.05093675 .00000117 00000+0 11142-3 0 9994
L22 27818 82.9512 142.4040 0030085 257.8219 284.6440 13.72347230 85395



Live tracking and technical data element details for COSMOS 2398 (NORAD 27818). COSMOS 2398 can be tracked NOW for your location showing map with azimuth and elevation plus other details from your city location.







IsCatalogInMostPopularTable: catalog: 27818, numindb: 371
Update: records affected: 1



GetName: 27818 COSMOS 2398

Hit Count: updated at: Fri, 16 May 2025 11:06:51 GMT